GW5342 Weather Reports


time (UTC)temp
C
wind
direction
speed
KPH
gust
KPH
rain 1hr
cm
rain 24hr
cm
rain mn
cm
humidity
%
barometer
mb
20260906114013 21 317 0.0 3.2 0.00 1.27 0.03 96 1012.0
20260906113510 21 360 0.0 3.2 0.00 1.27 0.03 96 1012.0
20260906113025 21 347 0.0 3.2 0.00 1.27 0.03 96 1011.8
20260906112515 21 11 0.0 1.6 0.00 1.27 0.03 95 1011.7
20260906112015 21 5 0.0 0.0 0.00 1.27 0.03 95 1011.6
20260906111530 20 5 0.0 0.0 0.00 1.27 0.03 95 1011.6
20260906111015 20 5 0.0 3.2 0.00 1.27 0.03 95 1011.7
20260906110518 20 5 0.0 3.2 0.00 1.27 0.03 95 1011.6
20260906110033 20 5 0.0 3.2 0.00 1.27 0.03 95 1011.6
20260906105506 20 5 0.0 3.2 0.00 1.27 0.03 95 1011.6
20260906105009 20 5 0.0 3.2 0.00 1.27 0.03 95 1011.7
20260906104532 20 5 0.0 0.0 0.00 1.27 0.03 95 1011.6
20260906104010 20 5 0.0 0.0 0.00 1.27 0.03 95 1011.5
20260906103512 20 5 0.0 0.0 0.00 1.27 0.03 95 1011.4
20260906103024 20 5 0.0 1.6 0.00 1.27 0.03 95 1011.4
20260906102513 20 5 0.0 3.2 0.00 1.27 0.03 95 1011.3
20260906102014 20 183 0.0 3.2 0.00 1.27 0.03 95 1011.3
20260906101534 20 183 0.0 3.2 0.00 1.27 0.03 95 1011.2
20260906101015 20 183 0.0 0.0 0.00 1.27 0.03 95 1011.1
20260906100505 20 183 0.0 0.0 0.00 1.27 0.03 95 1011.0
20260906100009 20 183 0.0 0.0 0.00 1.27 0.03 95 1010.9
20260906095506 20 183 0.0 0.0 0.00 1.27 0.03 95 1010.8
20260906095004 20 183 0.0 0.0 0.00 1.27 0.03 95 1010.8
20260906094534 20 183 0.0 0.0 0.00 1.27 0.03 95 1010.8
20260906094009 20 183 0.0 0.0 0.00 1.27 0.03 95 1010.8
20260906093513 20 183 0.0 0.0 0.00 1.27 0.03 95 1010.8
20260906093033 20 183 0.0 0.0 0.00 1.27 0.03 95 1010.7
20260906092513 21 183 0.0 0.0 0.03 1.27 0.03 95 1010.7
20260906092013 21 183 0.0 0.0 0.03 1.27 0.03 95 1010.7
20260906091528 21 183 0.0 0.0 0.03 1.27 0.03 95 1010.6
20260906091014 20 183 0.0 0.0 0.03 1.27 0.03 95 1010.4
20260906090516 20 183 0.0 0.0 0.03 1.27 0.03 95 1010.4
20260906090034 20 183 0.0 0.0 0.03 1.27 0.03 95 1010.3
20260906085509 20 183 0.0 0.0 0.03 1.27 0.03 95 1010.4
20260906085007 20 183 0.0 0.0 0.03 1.27 0.03 95 1010.4
20260906084517 20 183 0.0 0.0 0.03 1.27 0.03 95 1010.4
20260906084010 20 183 0.0 0.0 0.03 1.27 0.03 95 1010.4
20260906083509 20 183 0.0 0.0 0.03 1.27 0.03 95 1010.5
20260906083019 20 183 0.0 0.0 0.03 1.27 0.03 95 1010.5
20260906082511 20 183 0.0 0.0 0.00 1.24 0.00 95 1010.4
20260906082012 21 183 0.0 0.0 0.00 1.24 0.00 95 1010.6
20260906081530 21 183 0.0 0.0 0.00 1.24 0.00 95 1010.6
20260906081012 20 183 0.0 0.0 0.00 1.24 0.00 95 1010.7
20260906080514 20 183 0.0 0.0 0.00 1.24 0.00 95 1010.7
20260906080034 20 183 0.0 0.0 0.00 1.24 0.00 95 1010.6
20260906075515 21 183 0.0 0.0 0.00 1.24 0.00 95 1010.6
20260906075016 21 183 0.0 0.0 0.00 1.24 0.00 95 1010.7
20260906074534 21 183 0.0 0.0 0.00 1.24 0.00 95 1010.7
20260906074004 20 183 0.0 0.0 0.00 1.24 0.00 95 1010.7
20260906073507 20 183 0.0 0.0 0.00 1.24 0.00 95 1010.7
20260906073015 21 183 0.0 0.0 0.00 1.24 0.00 95 1010.7
20260906072509 20 183 0.0 0.0 0.00 1.24 0.00 95 1010.9
20260906072011 20 183 0.0 0.0 0.00 1.24 0.00 95 1010.9
20260906071523 20 183 0.0 0.0 0.00 1.24 0.00 95 1010.8
20260906071012 20 183 0.0 0.0 0.00 1.24 0.00 95 1010.8
20260906070515 20 183 0.0 0.0 0.00 1.24 0.00 94 1010.7
20260906070028 21 183 0.0 0.0 0.00 1.24 0.00 95 1010.7
20260906065516 21 183 0.0 0.0 0.00 1.24 0.00 95 1010.7
20260906065015 21 183 0.0 0.0 0.00 1.24 0.00 95 1010.7
20260906064529 21 183 0.0 0.0 0.00 1.24 0.00 94 1010.8
20260906064017 21 183 0.0 0.0 0.00 1.24 0.00 95 1010.8
20260906063516 20 183 0.0 0.0 0.00 1.24 0.00 94 1010.9
20260906063035 21 183 0.0 0.0 0.00 1.24 0.00 94 1010.9
20260906062507 21 183 0.0 0.0 0.00 1.24 0.00 94 1011.0
20260906062009 21 183 0.0 3.2 0.00 1.24 0.00 94 1011.0
20260906061522 21 183 0.0 3.2 0.00 1.24 0.00 94 1010.9
20260906061011 21 179 0.0 3.2 0.00 1.24 0.00 95 1010.8
20260906060512 21 181 0.0 3.2 0.00 1.24 0.00 95 1010.9
20260906060033 21 172 0.0 3.2 0.00 1.24 0.00 95 1011.0
20260906055515 21 47 0.0 0.0 0.00 1.24 0.00 95 1011.1
20260906055015 21 47 0.0 0.0 0.00 1.24 0.00 95 1011.2
20260906054532 21 47 0.0 0.0 0.00 1.24 0.00 95 1011.1
20260906054014 21 47 0.0 0.0 0.00 1.24 0.00 95 1011.2
20260906053513 21 47 0.0 0.0 0.00 1.24 0.00 95 1011.2
20260906053032 21 47 0.0 3.2 0.00 1.24 0.00 95 1011.3
20260906052517 21 47 0.0 3.2 0.00 1.24 0.00 95 1011.2
20260906052021 21 155 0.0 3.2 0.00 1.24 0.00 95 1011.3
20260906051518 21 155 0.0 3.2 0.00 1.24 0.00 95 1011.3
20260906051008 21 155 0.0 3.2 0.00 1.24 0.00 95 1011.3
20260906050511 21 155 0.0 3.2 0.00 1.24 0.00 95 1011.4
20260906050027 21 154 0.0 3.2 0.00 1.24 0.00 95 1011.4
20260906045511 21 58 0.0 0.0 0.00 1.24 0.00 95 1011.5
20260906045015 21 58 0.0 3.2 0.00 1.24 0.00 95 1011.5
20260906044529 21 58 0.0 3.2 0.00 1.24 0.00 95 1011.6
20260906044016 21 58 0.0 3.2 0.00 1.24 0.00 95 1011.5
20260906043516 21 58 0.0 3.2 0.00 1.24 0.00 95 1011.5
20260906043033 21 58 0.0 1.6 0.00 1.24 0.00 95 1011.6
20260906042516 21 58 0.0 0.0 0.00 1.24 0.00 95 1011.7
20260906042015 21 58 0.0 1.6 0.00 1.24 0.00 95 1011.6
20260906041533 21 58 0.0 1.6 0.00 1.24 0.00 95 1011.6
20260906041017 21 58 0.0 0.0 0.00 1.24 0.00 95 1011.5
20260906040519 21 58 0.0 0.0 0.00 1.24 0.00 95 1011.5
20260906040030 21 58 0.0 0.0 0.00 1.24 0.00 95 1011.5
20260906035511 21 58 0.0 0.0 0.00 1.24 1.24 95 1011.5
20260906035012 21 58 0.0 0.0 0.00 1.24 1.24 95 1011.6
20260906034506 21 58 0.0 0.0 0.00 1.24 1.24 95 1011.6
20260906034004 21 58 0.0 0.0 0.00 1.24 1.24 94 1011.4
20260906033503 21 58 0.0 0.0 0.00 1.24 1.24 94 1011.4
20260906033021 21 58 0.0 0.0 0.00 1.24 1.24 94 1011.5
20260906032504 21 58 0.0 0.0 0.00 1.24 1.24 94 1011.6
20260906032005 21 58 0.0 0.0 0.00 1.24 1.24 94 1011.7
20260906031511 21 58 0.0 0.0 0.00 1.24 1.24 95 1011.6
20260906031004 21 58 0.0 0.0 0.00 1.24 1.24 94 1011.7
20260906030508 21 58 0.0 0.0 0.00 1.24 1.24 94 1011.7
20260906030020 21 58 0.0 0.0 0.00 1.24 1.24 94 1011.9
20260906025509 21 360 0.0 0.0 0.00 1.24 1.24 94 1012.0
20260906025010 21 360 0.0 0.0 0.00 1.24 1.24 94 1011.9
20260906024527 21 360 0.0 0.0 0.00 1.24 1.24 94 1011.9
20260906024012 21 360 0.0 0.0 0.00 1.24 1.24 94 1011.8
20260906023504 21 360 0.0 0.0 0.00 1.24 1.24 94 1011.7
20260906023004 21 360 0.0 0.0 0.00 1.24 1.24 94 1011.8
20260906022504 21 360 0.0 3.2 0.00 1.24 1.24 94 1011.8
20260906022004 21 360 0.0 3.2 0.00 1.24 1.24 94 1011.8
20260906021512 21 35 0.0 3.2 0.00 1.24 1.24 94 1011.8
20260906021005 21 76 0.0 3.2 0.00 1.24 1.24 94 1011.9
20260906020506 22 10 0.0 0.0 0.00 1.24 1.24 94 1011.8
20260906020018 22 10 0.0 0.0 0.00 1.24 1.24 94 1011.8
20260906015508 22 10 0.0 0.0 0.00 1.24 1.24 94 1011.7
20260906015010 21 10 0.0 0.0 0.00 1.24 1.24 94 1011.6
20260906014537 21 10 0.0 3.2 0.00 1.24 1.24 94 1011.6
20260906014013 22 10 0.0 3.2 0.00 1.24 1.24 94 1011.6
20260906013511 21 10 0.0 0.0 0.00 1.24 1.24 94 1011.6
20260906013032 21 10 0.0 0.0 0.00 1.24 1.24 94 1011.5
20260906012513 21 5 0.0 0.0 0.00 1.24 1.24 94 1011.4
20260906012003 21 5 0.0 3.2 0.00 1.24 1.24 94 1011.4
20260906011507 21 65 0.0 3.2 0.00 1.24 1.24 94 1011.6
20260906011004 22 171 0.0 3.2 0.00 1.24 1.24 93 1011.5
20260906010505 22 171 0.0 3.2 0.00 1.24 1.24 93 1011.4
20260906010012 22 171 0.0 3.2 0.00 1.24 1.24 93 1011.3
20260906005505 22 171 0.0 0.0 0.00 1.24 1.24 93 1011.3
20260906005013 22 171 0.0 0.0 0.00 1.24 1.24 93 1011.4
20260906004534 22 171 0.0 3.2 0.00 1.24 1.24 93 1011.3
20260906004010 22 171 0.0 3.2 0.00 1.24 1.24 93 1011.4
20260906003510 22 171 0.0 0.0 0.00 1.24 1.24 93 1011.3
20260906003043 22 171 0.0 0.0 0.00 1.24 1.24 92 1011.4
20260906002511 22 171 0.0 0.0 0.00 1.24 1.24 93 1011.4
20260906002012 22 171 0.0 0.0 0.00 1.24 1.24 92 1011.1
20260906001533 22 171 0.0 0.0 0.00 1.24 1.24 92 1011.1
20260906001004 22 171 0.0 3.2 0.00 1.24 1.24 92 1011.1
20260906000505 22 171 0.0 3.2 0.00 1.24 1.24 92 1011.1
20260906000011 22 198 0.0 3.2 0.00 1.24 1.24 92 1011.1
20260905235505 22 198 0.0 3.2 0.00 1.24 1.24 92 1010.8
20260905235007 22 198 0.0 3.2 0.00 1.24 1.24 92 1011.0
20260905234516 22 5 0.0 4.8 0.00 1.24 1.24 92 1010.9
20260905234009 22 190 0.0 4.8 0.00 1.24 1.24 92 1010.7
20260905233508 22 173 1.6 4.8 0.00 1.24 1.24 92 1010.3
20260905233025 22 193 0.0 4.8 0.00 1.24 1.24 92 1010.3
20260905232511 22 196 0.0 4.8 0.00 1.24 1.24 92 1010.3
20260905232013 22 180 1.6 4.8 0.00 1.24 1.24 92 1010.2
20260905231535 22 162 0.0 1.6 0.00 1.24 1.24 93 1010.0
20260905231013 22 207 0.0 1.6 0.00 1.24 1.24 93 1009.8
20260905230513 22 207 0.0 1.6 0.00 1.24 1.24 93 1009.7
20260905230034 22 207 0.0 0.0 0.00 1.24 1.24 93 1009.7
20260905225504 22 207 0.0 0.0 0.00 1.24 1.24 93 1009.9
20260905225010 22 207 0.0 3.2 0.00 1.24 1.24 93 1009.6
20260905224525 22 207 0.0 3.2 0.00 1.24 1.24 92 1009.8
20260905224009 22 132 0.0 3.2 0.00 1.24 1.24 91 1009.7
20260905223507 22 165 0.0 3.2 0.00 1.24 1.24 91 1009.9
20260905223020 22 151 0.0 3.2 0.00 1.24 1.24 93 1009.8
20260905222510 22 151 0.0 3.2 0.00 1.24 1.24 93 1009.9
20260905222011 21 121 0.0 3.2 0.00 1.24 1.24 92 1010.0
20260905221534 21 352 0.0 3.2 0.00 1.24 1.24 92 1009.8
20260905221012 21 352 0.0 3.2 0.03 1.24 1.24 93 1009.6
20260905220516 21 352 0.0 3.2 0.33 1.24 1.24 92 1009.0
20260905220031 21 317 0.0 3.2 0.94 1.24 1.24 93 1008.6
20260905215517 22 314 0.0 3.2 1.24 1.24 1.24 92 1008.5
20260905215014 22 317 0.0 1.6 1.24 1.24 1.24 92 1009.0
20260905214512 21 311 0.0 3.2 1.24 1.24 1.24 91 1009.6
20260905214006 21 320 0.0 6.4 1.24 1.24 1.24 91 1009.7
20260905213507 21 85 1.6 12.9 1.24 1.24 1.24 90 1009.8
20260905213033 21 90 3.2 16.1 1.24 1.24 1.24 91 1009.3
20260905212011 21 310 3.2 27.4 1.24 1.24 1.24 90 1010.3
20260905211539 21 281 1.6 27.4 1.24 1.24 1.24 89 1010.4
20260905211015 22 342 8.0 30.6 1.22 1.22 1.22 88 1011.1
20260905210511 22 343 8.0 30.6 0.91 0.91 0.91 86 1011.9
20260905210028 24 352 6.4 33.8 0.30 0.30 0.30 77 1012.1
20260905205517 28 290 8.0 33.8 0.00 0.00 0.00 65 1012.0
20260905205017 33 341 8.0 20.9 0.00 0.00 0.00 59 1011.5
20260905204531 33 322 0.0 3.2 0.00 0.00 0.00 59 1009.4
20260905204014 33 322 0.0 3.2 0.00 0.00 0.00 59 1009.3
20260905203516 33 322 0.0 3.2 0.00 0.00 0.00 58 1009.2
20260905203016 33 117 0.0 3.2 0.00 0.00 0.00 56 1009.2
20260905202507 33 325 0.0 3.2 0.00 0.00 0.00 58 1008.9
20260905202013 33 323 0.0 3.2 0.00 0.00 0.00 57 1008.9
20260905201528 35 323 0.0 3.2 0.00 0.00 0.00 55 1008.9
20260905201013 35 296 0.0 3.2 0.00 0.00 0.00 55 1008.9
20260905200511 35 299 0.0 3.2 0.00 0.00 0.00 55 1008.9
20260905200027 35 344 0.0 3.2 0.00 0.00 0.00 54 1008.9
20260905195502 35 262 0.0 3.2 0.00 0.00 0.00 53 1009.0
20260905195004 35 211 0.0 3.2 0.00 0.00 0.00 54 1009.1
20260905194503 35 302 0.0 3.2 0.00 0.00 0.00 55 1009.2
20260905194002 35 263 1.6 4.8 0.00 0.00 0.00 53 1009.3
20260905193505 35 258 0.0 4.8 0.00 0.00 0.00 53 1009.3
20260905193003 35 238 1.6 4.8 0.00 0.00 0.00 53 1009.1
20260905192503 35 275 0.0 3.2 0.00 0.00 0.00 52 1009.3
20260905192004 36 180 0.0 3.2 0.00 0.00 0.00 52 1009.3
20260905191504 35 313 0.0 3.2 0.00 0.00 0.00 54 1009.4
20260905191002 35 263 0.0 3.2 0.00 0.00 0.00 53 1009.5
20260905190502 35 326 0.0 6.4 0.00 0.00 0.00 55 1009.5
20260905190010 35 306 1.6 6.4 0.00 0.00 0.00 55 1009.5
20260905185501 35 254 1.6 3.2 0.00 0.00 0.00 52 1009.4
20260905185004 35 202 0.0 3.2 0.00 0.00 0.00 55 1009.6
20260905184504 35 240 0.0 3.2 0.00 0.00 0.00 55 1009.8
20260905184003 35 276 1.6 4.8 0.00 0.00 0.00 53 1009.9
20260905183503 35 163 1.6 4.8 0.00 0.00 0.00 55 1009.9
20260905183004 35 167 0.0 3.2 0.00 0.00 0.00 55 1010.1
20260905182503 35 191 0.0 4.8 0.00 0.00 0.00 55 1010.1
20260905182003 35 99 1.6 4.8 0.00 0.00 0.00 54 1010.1
20260905181503 35 315 1.6 4.8 0.00 0.00 0.00 58 1010.2
20260905181003 35 246 1.6 4.8 0.00 0.00 0.00 56 1010.3
20260905180503 35 9 1.6 4.8 0.00 0.00 0.00 55 1010.5
20260905180004 35 333 0.0 3.2 0.00 0.00 0.00 57 1010.7
20260905175503 35 315 0.0 3.2 0.00 0.00 0.00 56 1010.8
20260905175002 34 294 0.0 8.0 0.00 0.00 0.00 56 1011.0
20260905174508 35 291 1.6 8.0 0.00 0.00 0.00 58 1011.1
20260905174002 34 263 0.0 3.2 0.00 0.00 0.00 59 1011.1
20260905173503 34 165 0.0 8.0 0.00 0.00 0.00 58 1011.2
20260905173003 35 309 0.0 8.0 0.00 0.00 0.00 59 1011.3
20260905172504 34 263 0.0 3.2 0.00 0.00 0.00 59 1011.4
20260905172007 34 263 0.0 3.2 0.00 0.00 0.00 59 1011.4
20260905171518 34 254 0.0 3.2 0.00 0.00 0.00 59 1011.4
20260905171007 34 241 0.0 3.2 0.00 0.00 0.00 59 1011.5
20260905170504 34 195 0.0 3.2 0.00 0.00 0.00 60 1011.4
20260905170003 33 248 0.0 3.2 0.00 0.00 0.00 61 1011.5
20260905165502 34 233 1.6 6.4 0.00 0.00 0.00 60 1011.7
20260905165003 34 273 1.6 6.4 0.00 0.00 0.00 60 1011.7
20260905164506 33 44 1.6 3.2 0.00 0.00 0.00 61 1011.7
20260905164004 33 284 0.0 3.2 0.00 0.00 0.00 62 1011.8
20260905163506 33 290 0.0 3.2 0.00 0.00 0.00 61 1012.0
20260905163005 33 254 0.0 3.2 0.00 0.00 0.00 61 1012.0
20260905162503 33 338 0.0 8.0 0.00 0.00 0.00 61 1012.0
20260905162003 33 267 1.6 8.0 0.00 0.00 0.00 60 1012.1
20260905161503 33 324 0.0 3.2 0.00 0.00 0.00 62 1012.1
20260905161004 33 200 0.0 4.8 0.00 0.00 0.00 63 1012.1
20260905160502 33 211 1.6 3.2 0.00 0.00 0.00 63 1012.1
20260905160012 32 235 0.0 3.2 0.00 0.00 0.00 64 1012.2
20260905155504 33 241 0.0 3.2 0.00 0.00 0.00 65 1012.2
20260905155003 33 237 0.0 4.8 0.00 0.00 0.00 65 1012.3
20260905154505 32 215 1.6 4.8 0.00 0.00 0.00 65 1012.4
20260905154003 32 234 0.0 3.2 0.00 0.00 0.00 66 1012.4
20260905153503 33 221 0.0 3.2 0.00 0.00 0.00 66 1012.6
20260905153006 32 161 0.0 3.2 0.00 0.00 0.00 66 1012.6
20260905152504 32 246 0.0 3.2 0.00 0.00 0.00 67 1012.7
20260905152003 32 229 1.6 3.2 0.00 0.00 0.00 67 1012.6
20260905151526 32 182 1.6 3.2 0.00 0.00 0.00 68 1012.6
20260905151003 32 215 0.0 4.8 0.00 0.00 0.00 70 1012.6
20260905150503 31 250 0.0 4.8 0.00 0.00 0.00 71 1012.6
20260905150010 31 274 0.0 3.2 0.00 0.00 0.00 71 1012.7
20260905145503 31 226 0.0 3.2 0.00 0.00 0.00 71 1012.7
20260905145003 31 200 0.0 4.8 0.00 0.00 0.00 72 1012.6
20260905144504 31 248 1.6 4.8 0.00 0.00 0.00 71 1012.7
20260905144002 31 240 0.0 3.2 0.00 0.00 0.00 72 1012.7
20260905143504 31 284 0.0 3.2 0.00 0.00 0.00 73 1012.7
20260905143006 31 254 0.0 3.2 0.00 0.00 0.00 73 1012.7
20260905142503 30 263 0.0 3.2 0.00 0.00 0.00 75 1012.8
20260905142004 30 259 0.0 4.8 0.00 0.00 0.00 73 1012.8
20260905141505 30 227 1.6 4.8 0.00 0.00 0.00 75 1012.7
20260905141003 30 227 0.0 3.2 0.00 0.00 0.00 75 1012.9
20260905140506 30 105 0.0 3.2 0.00 0.00 0.00 75 1012.8
20260905140006 30 246 0.0 4.8 0.00 0.00 0.00 75 1012.8
20260905135504 30 39 1.6 4.8 0.00 0.00 0.00 76 1012.8
20260905135004 29 250 0.0 4.8 0.00 0.00 0.00 77 1012.8
20260905134506 29 249 0.0 3.2 0.00 0.00 0.00 77 1012.8
20260905134003 29 255 0.0 3.2 0.00 0.00 0.00 78 1012.8
20260905133503 28 228 0.0 3.2 0.00 0.00 0.00 79 1012.8
20260905133007 28 123 0.0 3.2 0.00 0.00 0.00 80 1012.9
20260905132503 28 343 0.0 3.2 0.00 0.00 0.00 80 1012.9
20260905132003 28 169 0.0 3.2 0.00 0.00 0.00 80 1012.9
20260905131514 28 259 0.0 3.2 0.00 0.00 0.00 80 1012.9
20260905131004 28 275 0.0 3.2 0.00 0.00 0.00 82 1013.1
20260905130504 28 242 0.0 3.2 0.00 0.00 0.00 82 1013.1
20260905130006 28 298 0.0 3.2 0.00 0.00 0.00 83 1013.0
20260905125508 27 149 0.0 3.2 0.00 0.00 0.00 84 1013.2
20260905125005 27 272 0.0 3.2 0.00 0.00 0.00 84 1013.2
20260905124507 27 102 0.0 3.2 0.00 0.00 0.00 85 1013.2
20260905124011 27 279 0.0 3.2 0.00 0.00 0.00 85 1013.1
20260905123503 27 32 0.0 3.2 0.00 0.00 0.00 86 1013.1
20260905123007 26 44 0.0 3.2 0.00 0.00 0.00 87 1013.2
20260905122503 26 294 0.0 3.2 0.00 0.00 0.00 87 1013.2
20260905122004 26 287 0.0 3.2 0.00 0.00 0.00 88 1013.1
20260905121508 26 188 0.0 3.2 0.00 0.00 0.00 88 1013.2
20260905121005 26 292 0.0 3.2 0.00 0.00 0.00 88 1013.2
20260905120503 26 360 0.0 3.2 0.00 0.00 0.00 90 1013.2
20260905120008 25 326 0.0 3.2 0.00 0.00 0.00 90 1013.1
20260905115505 25 285 0.0 3.2 0.00 0.00 0.00 90 1013.1
20260905115004 25 232 0.0 3.2 0.00 0.00 0.00 91 1013.1
20260905114515 25 236 0.0 3.2 0.00 0.00 0.00 91 1012.9